Regional Weather Roundup
Issued by NWS Northern Indiana

Home | Current Version | Previous Version | Text Only | Print | Product List | Glossary Off
Versions: 1 2 3 4 5 6 7 8 9 10 11 12 13 14 15 16 17 18 19 20 21 22 23 24 25 26 27 28 29 30 31 32 33 34 35 36 37 38 39 40 41 42 43 44 45 46 47 48 49 50

000
ASUS43 KIWX 051400
RWRIWX

KIWX WEATHER ROUNDUP
NATIONAL WEATHER SERVICE NORTHERN INDIANA
1000 AM EDT SUN JUL 05 2015

NOTE: "FAIR" INDICATES FEW OR NO CLOUDS BELOW 12,000 FEET WITH NO
SIGNIFICANT WEATHER AND/OR OBSTRUCTIONS TO VISIBILITY.

* THESE STATIONS ARE NOT UNDER NWS QUALITY CONTROL. THEY ALSO MAY NOT
  REPORT WEATHER SUCH AS PRECIPITATION OR FOG.

INZ001>027-051500-
NORTHERN INDIANA

CITY           SKY/WX    TMP DP  RH WIND       PRES   REMARKS
GARY*          SUNNY    N/A N/A N/A CALM      30.11R HAZE
SOUTH BEND     SUNNY     74  62  66 S5        30.13R
ELKHART*       SUNNY     72  63  73 CALM      30.14R HAZE
GOSHEN         SUNNY     72  63  73 CALM      30.13R
ANGOLA*          N/A     72  64  78 CALM      30.13R
FORT WAYNE     CLOUDY    71  62  73 CALM      30.13S
PERU/GRISSOM   MOSUNNY   70  63  78 E2        30.11S

$$
INZ028>050-051500-
CENTRAL INDIANA

CITY           SKY/WX    TMP DP  RH WIND       PRES   REMARKS
LAFAYETTE      SUNNY     71  63  75 E3        30.10S HAZE
KOKOMO*        MOSUNNY   68  61  77 CALM      30.11S
MUNCIE*        PTSUNNY   74  60  61 CALM      30.12R
INDIANAPOLIS   PTSUNNY   75  60  59 CALM      30.08F

$$
MIZ043>046-050>051-056>058-064>065-071>073-077>080-051500-
SOUTHWEST LOWER MICHIGAN

CITY           SKY/WX    TMP DP  RH WIND       PRES   REMARKS
BATTLE CREEK   SUNNY     73  62  68 SW5       30.14R
BENTON HARBOR  SUNNY     74  62  66 SW5       30.11R
COLDWATER*     SUNNY     73  61  65 CALM      30.14R
HILLSDALE*     SUNNY     74  61  65 S5        30.14S
HOLLAND        MOSUNNY   71  61  70 CALM      30.12S
GRAND RAPIDS   SUNNY     70  61  73 SW6       30.12S
KALAMAZOO      SUNNY     73  62  68 S5        30.13R
STURGIS*       SUNNY     70  63  78 CALM      30.13S
THREE RIVERS*  FAIR      70  63  78 CALM      30.14R HAZE

$$
OHZ001>008-015>018-024>025-051500-
NORTHWEST OHIO

CITY           SKY/WX    TMP DP  RH WIND       PRES   REMARKS
DEFIANCE       MOSUNNY   72  61  68 S3        30.12S
FINDLAY        MOSUNNY   72  61  68 CALM      30.12S
TOLEDO EXPRESS SUNNY     73  61  65 CALM      30.13R
TOLEDO METCALF MOSUNNY   71  58  63 CALM      30.14R
LIMA           MOSUNNY   71  59  65 S5        30.12F

$$
AND FOR LAKE MICHIGAN COASTAL AND OPEN LAKE BUOY OBSERVATIONS

STATION/POSITION TEMP    WIND        PRES    VSBY  WAVE
                 AIR SEA DIR/SP/G                  HT/PER
                 (F)     (DEG/KT/KT) (MB)    (MI)  (FT/S)
CALUMET HARBOR    72     230/  3/  4   N/A
MICHIGAN CITY     69     230/  3/  5   N/A
BURNS HARBOR      70     200/  4/  6 1019.6S
SAINT JOSEPH      71     170/  4/  7   N/A
4 MI NW BRIDGMAN  65 63                N/A           0
MICHIGAN CITY     66 64  240/  2/  2   N/A           0

$$
&&


USA.gov is the U.S. government's official web portal to all federal, state and local government web resources and services.